Time,TemperatureF,DewpointF,PressureIn,WindDirection,WindDirectionDegrees,WindSpeedMPH,WindSpeedGustMPH,Humidity,HourlyPrecipIn,Conditions,Clouds,dailyrainin,SolarRadiationWatts/m^2,SoftwareType,DateUTC
2013-08-28 00:10:00,68.7,66.0,23.17,West,273,0.0,0.0,91,0.00,,,0.00,0,Wunderground v.1.15,2013-08-28 04:10:00,
2013-08-28 00:20:00,68.7,66.3,23.17,West,273,0.0,0.0,92,0.00,,,0.00,0,Wunderground v.1.15,2013-08-28 04:20:00,
2013-08-28 00:40:00,68.8,66.4,23.17,West,273,0.0,0.0,92,0.00,,,0.00,0,Wunderground v.1.15,2013-08-28 04:40:00,
2013-08-28 00:50:00,68.7,66.3,23.17,West,273,0.0,0.0,92,0.00,,,0.00,0,Wunderground v.1.15,2013-08-28 04:50:00,
2013-08-28 01:10:00,68.7,66.3,23.17,West,273,0.0,0.0,92,0.00,,,0.00,0,Wunderground v.1.15,2013-08-28 05:10:00,
2013-08-28 01:20:00,68.5,66.1,23.17,West,273,0.0,0.0,92,0.00,,,0.00,0,Wunderground v.1.15,2013-08-28 05:20:00,
2013-08-28 01:40:00,68.3,66.2,23.17,West,273,0.0,0.0,93,0.00,,,0.00,0,Wunderground v.1.15,2013-08-28 05:40:00,
2013-08-28 01:50:00,68.3,66.2,23.17,West,273,0.0,0.0,93,0.00,,,0.00,0,Wunderground v.1.15,2013-08-28 05:50:00,
2013-08-28 02:00:00,68.2,66.1,23.17,West,273,0.0,0.0,93,0.00,,,0.00,0,Wunderground v.1.15,2013-08-28 06:00:00,
2013-08-28 02:10:00,68.2,66.1,23.17,West,273,0.0,0.0,93,0.00,,,0.00,0,Wunderground v.1.15,2013-08-28 06:10:00,
2013-08-28 02:20:00,68.2,66.1,23.17,West,273,0.0,0.0,93,0.00,,,0.00,0,Wunderground v.1.15,2013-08-28 06:20:00,
2013-08-28 02:31:00,67.8,65.7,23.17,West,273,0.0,0.0,93,0.00,,,0.00,0,Wunderground v.1.15,2013-08-28 06:31:00,
2013-08-28 02:40:00,67.8,65.7,23.17,West,273,0.0,0.0,93,0.00,,,0.00,0,Wunderground v.1.15,2013-08-28 06:40:00,
2013-08-28 02:50:00,67.8,65.7,23.17,West,273,0.0,0.0,93,0.00,,,0.00,0,Wunderground v.1.15,2013-08-28 06:50:00,
2013-08-28 03:10:00,67.7,65.6,23.17,West,273,0.0,0.0,93,0.00,,,0.00,0,Wunderground v.1.15,2013-08-28 07:10:00,
2013-08-28 03:20:00,67.7,65.6,23.17,West,273,0.0,0.0,93,0.00,,,0.00,0,Wunderground v.1.15,2013-08-28 07:20:00,
2013-08-28 03:40:00,67.3,65.5,23.17,West,273,0.0,0.0,94,0.00,,,0.00,0,Wunderground v.1.15,2013-08-28 07:40:00,
2013-08-28 03:50:00,67.3,65.5,23.17,West,273,0.0,0.0,94,0.00,,,0.00,0,Wunderground v.1.15,2013-08-28 07:50:00,
2013-08-28 04:10:00,67.2,65.4,23.17,West,273,0.0,0.0,94,0.00,,,0.00,0,Wunderground v.1.15,2013-08-28 08:10:00,
2013-08-28 04:20:00,67.0,65.2,23.17,West,273,0.0,0.0,94,0.00,,,0.00,0,Wunderground v.1.15,2013-08-28 08:20:00,
2013-08-28 04:30:00,66.8,65.0,23.17,West,273,0.0,0.0,94,0.00,,,0.00,0,Wunderground v.1.15,2013-08-28 08:30:00,
2013-08-28 04:40:00,66.5,64.7,23.17,West,273,0.0,0.0,94,0.00,,,0.00,0,Wunderground v.1.15,2013-08-28 08:40:00,
2013-08-28 04:50:00,66.3,64.5,23.17,West,273,0.0,0.0,94,0.00,,,0.00,0,Wunderground v.1.15,2013-08-28 08:50:00,
2013-08-28 05:10:00,66.0,64.2,23.17,West,273,0.0,0.0,94,0.00,,,0.00,0,Wunderground v.1.15,2013-08-28 09:10:00,
2013-08-28 05:20:00,65.2,63.4,23.17,West,273,0.0,0.0,94,0.00,,,0.00,0,Wunderground v.1.15,2013-08-28 09:20:00,
2013-08-28 05:30:00,64.2,62.4,23.17,West,273,0.0,0.0,94,0.00,,,0.00,0,Wunderground v.1.15,2013-08-28 09:30:00,
2013-08-28 05:40:00,64.1,62.3,23.17,West,273,0.0,0.0,94,0.00,,,0.00,0,Wunderground v.1.15,2013-08-28 09:40:00,
2013-08-28 05:50:00,63.9,62.1,23.17,West,273,0.0,0.0,94,0.00,,,0.00,0,Wunderground v.1.15,2013-08-28 09:50:00,
2013-08-28 06:10:00,63.6,61.8,23.17,West,273,0.0,0.0,94,0.00,,,0.00,0,Wunderground v.1.15,2013-08-28 10:10:00,
2013-08-28 06:20:00,63.4,61.6,23.18,West,273,0.0,0.0,94,0.00,,,0.00,7,Wunderground v.1.15,2013-08-28 10:20:00,
2013-08-28 06:40:00,63.1,61.3,23.18,West,273,0.0,0.0,94,0.00,,,0.00,16,Wunderground v.1.15,2013-08-28 10:40:00,
2013-08-28 06:50:00,63.1,61.3,23.18,West,273,0.0,0.0,94,0.00,,,0.01,26,Wunderground v.1.15,2013-08-28 10:50:00,
2013-08-28 07:10:00,63.6,61.8,23.18,West,273,0.0,0.0,94,0.00,,,0.01,53,Wunderground v.1.15,2013-08-28 11:10:00,
2013-08-28 07:20:00,63.9,62.4,23.18,West,273,0.0,0.0,95,0.00,,,0.01,67,Wunderground v.1.15,2013-08-28 11:20:00,
2013-08-28 07:40:00,65.2,63.7,23.18,West,273,0.0,0.0,95,0.00,,,0.01,153,Wunderground v.1.15,2013-08-28 11:40:00,
2013-08-28 07:50:00,66.0,64.5,23.18,West,273,0.0,0.0,95,0.00,,,0.01,172,Wunderground v.1.15,2013-08-28 11:50:00,
2013-08-28 08:10:00,66.8,65.3,23.18,West,273,0.0,0.0,95,0.00,,,0.01,244,Wunderground v.1.15,2013-08-28 12:10:00,
2013-08-28 08:20:00,67.3,65.5,23.18,West,273,0.0,0.0,94,0.00,,,0.01,278,Wunderground v.1.15,2013-08-28 12:20:00,
2013-08-28 08:40:00,69.3,67.5,23.18,West,273,0.0,0.0,94,0.00,,,0.01,336,Wunderground v.1.15,2013-08-28 12:40:00,
2013-08-28 08:50:00,70.8,68.4,23.18,West,273,0.0,0.0,92,0.00,,,0.01,380,Wunderground v.1.15,2013-08-28 12:50:00,
2013-08-28 09:10:00,73.6,67.0,23.18,West,273,0.0,0.0,80,0.00,,,0.01,445,Wunderground v.1.15,2013-08-28 13:10:00,
2013-08-28 09:20:00,74.5,66.8,23.18,West,273,0.0,0.0,77,0.00,,,0.01,473,Wunderground v.1.15,2013-08-28 13:20:00,
2013-08-28 09:30:00,75.3,67.2,23.18,West,273,0.0,0.0,76,0.00,,,0.01,492,Wunderground v.1.15,2013-08-28 13:30:00,
2013-08-28 09:40:00,75.9,67.8,23.18,West,273,0.0,0.0,76,0.00,,,0.01,512,Wunderground v.1.15,2013-08-28 13:40:00,
2013-08-28 09:50:00,75.7,67.6,23.18,West,273,0.0,0.0,76,0.00,,,0.01,534,Wunderground v.1.15,2013-08-28 13:50:00,
2013-08-28 10:10:00,76.7,67.8,23.18,West,273,0.0,0.0,74,0.00,,,0.01,592,Wunderground v.1.15,2013-08-28 14:10:00,
2013-08-28 10:20:00,77.1,68.2,23.18,West,273,0.0,0.0,74,0.00,,,0.01,612,Wunderground v.1.15,2013-08-28 14:20:00,
2013-08-28 10:31:00,77.6,67.4,23.18,West,273,0.0,0.0,71,0.00,,,0.01,650,Wunderground v.1.15,2013-08-28 14:31:00,
2013-08-28 10:40:00,77.8,67.6,23.18,West,273,0.0,0.0,71,0.00,,,0.01,714,Wunderground v.1.15,2013-08-28 14:40:00,
2013-08-28 10:50:00,77.8,67.6,23.18,West,273,0.0,0.0,71,0.00,,,0.01,225,Wunderground v.1.15,2013-08-28 14:50:00,
2013-08-28 11:00:00,77.6,68.7,23.18,West,273,0.0,0.0,74,0.00,,,0.01,299,Wunderground v.1.15,2013-08-28 15:00:00,
2013-08-28 11:10:00,78.2,68.4,23.18,West,273,0.0,0.0,72,0.00,,,0.01,526,Wunderground v.1.15,2013-08-28 15:10:00,
2013-08-28 11:20:00,79.5,68.4,23.18,SSE,155,0.0,0.0,69,0.00,,,0.01,738,Wunderground v.1.15,2013-08-28 15:20:00,
2013-08-28 11:30:00,79.8,68.3,23.18,SE,144,0.0,0.0,68,0.00,,,0.01,281,Wunderground v.1.15,2013-08-28 15:30:00,
2013-08-28 11:40:00,79.5,68.4,23.18,SSE,163,0.0,0.0,69,0.00,,,0.01,316,Wunderground v.1.15,2013-08-28 15:40:00,
2013-08-28 11:50:00,80.2,67.8,23.18,SSE,148,0.0,0.0,66,0.00,,,0.01,939,Wunderground v.1.15,2013-08-28 15:50:00,
2013-08-28 12:10:00,79.8,67.9,23.18,South,170,0.0,0.0,67,0.00,,,0.01,1014,Wunderground v.1.15,2013-08-28 16:10:00,
2013-08-28 12:20:00,81.1,68.2,23.18,SSE,166,0.0,0.0,65,0.00,,,0.01,339,Wunderground v.1.15,2013-08-28 16:20:00,
2013-08-28 12:40:00,80.8,68.4,23.18,SSE,159,0.0,0.0,66,0.00,,,0.01,383,Wunderground v.1.15,2013-08-28 16:40:00,
2013-08-28 12:50:00,80.6,67.3,23.18,SSE,158,0.0,0.0,64,0.00,,,0.01,297,Wunderground v.1.15,2013-08-28 16:50:00,
2013-08-28 13:00:00,81.0,67.2,23.18,SSE,159,0.0,0.0,63,0.00,,,0.01,229,Wunderground v.1.15,2013-08-28 17:00:00,
2013-08-28 13:10:00,80.4,67.1,23.18,South,169,0.0,0.0,64,0.00,,,0.01,287,Wunderground v.1.15,2013-08-28 17:10:00,
2013-08-28 13:20:00,81.9,67.1,23.18,SE,140,0.0,0.0,61,0.00,,,0.01,397,Wunderground v.1.15,2013-08-28 17:20:00,
2013-08-28 13:40:00,82.7,66.4,23.18,SSE,158,0.0,0.0,58,0.00,,,0.01,406,Wunderground v.1.15,2013-08-28 17:40:00,
2013-08-28 13:50:00,82.3,67.0,23.18,SSE,159,0.0,0.0,60,0.00,,,0.01,327,Wunderground v.1.15,2013-08-28 17:50:00,
2013-08-28 14:10:00,82.3,65.5,23.18,SSE,160,0.0,0.0,57,0.00,,,0.01,267,Wunderground v.1.15,2013-08-28 18:10:00,
2013-08-28 14:20:00,82.3,67.0,23.18,SSE,159,0.0,0.0,60,0.00,,,0.01,237,Wunderground v.1.15,2013-08-28 18:20:00,
2013-08-28 14:40:00,81.7,67.9,23.18,SE,142,0.0,0.0,63,0.00,,,0.01,315,Wunderground v.1.15,2013-08-28 18:40:00,
2013-08-28 14:50:00,81.5,68.1,23.18,ENE,76,0.0,0.0,64,0.00,,,0.01,385,Wunderground v.1.15,2013-08-28 18:50:00,
2013-08-28 15:10:00,81.0,68.6,23.18,East,100,0.0,0.0,66,0.00,,,0.01,171,Wunderground v.1.15,2013-08-28 19:10:00,
2013-08-28 15:20:00,81.0,69.0,23.18,SE,136,0.0,0.0,67,0.00,,,0.01,724,Wunderground v.1.15,2013-08-28 19:20:00,
2013-08-28 15:31:00,81.5,68.1,23.18,SE,134,0.0,0.0,64,0.00,,,0.01,239,Wunderground v.1.15,2013-08-28 19:31:00,
2013-08-28 15:40:00,81.1,67.8,23.18,SE,134,0.0,0.0,64,0.00,,,0.01,192,Wunderground v.1.15,2013-08-28 19:40:00,
2013-08-28 15:50:00,81.1,67.8,23.18,SE,134,0.0,0.0,64,0.00,,,0.01,272,Wunderground v.1.15,2013-08-28 19:50:00,
2013-08-28 16:01:00,81.9,68.5,23.18,SE,134,0.0,0.0,64,0.00,,,0.01,332,Wunderground v.1.15,2013-08-28 20:01:00,
2013-08-28 16:10:00,82.5,69.1,23.18,ENE,72,0.0,0.0,64,0.00,,,0.01,346,Wunderground v.1.15,2013-08-28 20:10:00,
2013-08-28 16:20:00,81.7,68.8,23.18,ESE,111,0.0,0.0,65,0.00,,,0.01,250,Wunderground v.1.15,2013-08-28 20:20:00,
2013-08-28 16:31:00,81.0,68.1,23.18,ENE,74,0.0,0.0,65,0.00,,,0.01,295,Wunderground v.1.15,2013-08-28 20:31:00,
2013-08-28 16:40:00,81.0,68.1,23.18,ESE,110,0.0,0.0,65,0.00,,,0.01,221,Wunderground v.1.15,2013-08-28 20:40:00,
2013-08-28 16:50:00,80.8,68.4,23.18,ESE,109,0.0,0.0,66,0.00,,,0.01,134,Wunderground v.1.15,2013-08-28 20:50:00,
2013-08-28 17:10:00,80.2,68.7,23.18,ESE,109,0.0,0.0,68,0.00,,,0.01,72,Wunderground v.1.15,2013-08-28 21:10:00,
2013-08-28 17:20:00,79.3,69.1,23.18,ESE,109,0.0,0.0,71,0.00,,,0.01,69,Wunderground v.1.15,2013-08-28 21:20:00,
2013-08-28 17:40:00,78.2,68.8,23.18,ESE,105,0.0,0.0,73,0.00,,,0.01,90,Wunderground v.1.15,2013-08-28 21:40:00,
2013-08-28 17:50:00,77.8,69.2,23.18,ESE,105,0.0,0.0,75,0.00,,,0.01,104,Wunderground v.1.15,2013-08-28 21:50:00,
2013-08-28 18:10:00,77.1,67.8,23.18,East,86,0.0,0.0,73,0.00,,,0.01,93,Wunderground v.1.15,2013-08-28 22:10:00,
2013-08-28 18:20:00,77.1,67.8,23.18,East,86,0.0,0.0,73,0.00,,,0.01,105,Wunderground v.1.15,2013-08-28 22:20:00,
2013-08-28 18:31:00,76.9,67.6,23.18,East,85,0.0,0.0,73,0.00,,,0.01,125,Wunderground v.1.15,2013-08-28 22:31:00,
2013-08-28 18:40:00,76.9,67.6,23.18,East,85,0.0,0.0,73,0.00,,,0.01,137,Wunderground v.1.15,2013-08-28 22:40:00,
2013-08-28 18:50:00,77.1,67.4,23.18,East,86,0.0,0.0,72,0.00,,,0.01,86,Wunderground v.1.15,2013-08-28 22:50:00,
2013-08-28 19:10:00,76.4,66.7,23.18,East,98,0.0,0.0,72,0.00,,,0.01,18,Wunderground v.1.15,2013-08-28 23:10:00,
2013-08-28 19:20:00,75.5,66.6,23.18,East,98,0.0,0.0,74,0.00,,,0.01,11,Wunderground v.1.15,2013-08-28 23:20:00,
2013-08-28 19:31:00,74.8,66.3,23.18,East,98,0.0,0.0,75,0.00,,,0.01,5,Wunderground v.1.15,2013-08-28 23:31:00,
2013-08-28 19:40:00,74.1,66.0,23.19,East,98,0.0,0.0,76,0.00,,,0.01,0,Wunderground v.1.15,2013-08-28 23:40:00,
2013-08-28 19:50:00,73.6,65.9,23.19,East,98,0.0,0.0,77,0.00,,,0.01,0,Wunderground v.1.15,2013-08-28 23:50:00,
2013-08-28 20:01:00,72.7,65.8,23.19,East,95,0.0,0.0,79,0.00,,,0.01,0,Wunderground v.1.15,2013-08-29 00:01:00,
2013-08-28 20:10:00,72.7,66.2,23.19,ENE,76,0.0,0.0,80,0.00,,,0.01,0,Wunderground v.1.15,2013-08-29 00:10:00,
2013-08-28 20:20:00,72.4,65.5,23.19,ENE,69,0.0,0.0,79,0.00,,,0.01,0,Wunderground v.1.15,2013-08-29 00:20:00,
2013-08-28 20:40:00,71.4,64.2,23.19,NE,47,0.0,0.0,78,0.00,,,0.01,0,Wunderground v.1.15,2013-08-29 00:40:00,
2013-08-28 20:50:00,70.2,62.3,23.20,ENE,69,0.0,0.0,76,0.00,,,0.01,0,Wunderground v.1.15,2013-08-29 00:50:00,
2013-08-28 21:01:00,69.3,61.4,23.20,ENE,67,0.0,0.0,76,0.00,,,0.01,0,Wunderground v.1.15,2013-08-29 01:01:00,
2013-08-28 21:10:00,68.8,60.6,23.20,ENE,71,0.0,0.0,75,0.00,,,0.01,0,Wunderground v.1.15,2013-08-29 01:10:00,
2013-08-28 21:20:00,68.3,60.1,23.20,ENE,74,0.0,0.0,75,0.00,,,0.01,0,Wunderground v.1.15,2013-08-29 01:20:00,
2013-08-28 21:31:00,67.5,59.3,23.20,ENE,57,0.0,0.0,75,0.00,,,0.01,0,Wunderground v.1.15,2013-08-29 01:31:00,
2013-08-28 21:40:00,66.8,58.6,23.20,NE,46,0.0,0.0,75,0.00,,,0.01,0,Wunderground v.1.15,2013-08-29 01:40:00,
2013-08-28 21:50:00,66.3,58.5,23.20,ENE,74,0.0,0.0,76,0.00,,,0.01,0,Wunderground v.1.15,2013-08-29 01:50:00,
2013-08-28 22:10:00,65.5,58.5,23.20,East,89,0.0,0.0,78,0.00,,,0.01,0,Wunderground v.1.15,2013-08-29 02:10:00,
2013-08-28 22:20:00,65.2,58.5,23.20,NE,41,0.0,0.0,79,0.00,,,0.01,0,Wunderground v.1.15,2013-08-29 02:20:00,
2013-08-28 22:40:00,64.7,58.7,23.20,ENE,63,0.0,0.0,81,0.00,,,0.01,0,Wunderground v.1.15,2013-08-29 02:40:00,
2013-08-28 22:50:00,64.6,58.6,23.21,ENE,69,0.0,0.0,81,0.00,,,0.01,0,Wunderground v.1.15,2013-08-29 02:50:00,
2013-08-28 23:10:00,64.2,58.2,23.21,North,11,0.0,0.0,81,0.00,,,0.01,0,Wunderground v.1.15,2013-08-29 03:10:00,
2013-08-28 23:20:00,64.1,58.1,23.21,ENE,67,0.0,0.0,81,0.00,,,0.01,0,Wunderground v.1.15,2013-08-29 03:20:00,
2013-08-28 23:30:00,63.8,58.2,23.21,ENE,71,0.0,0.0,82,0.00,,,0.01,0,Wunderground v.1.15,2013-08-29 03:30:00,
2013-08-28 23:40:00,63.4,57.8,23.21,ENE,71,0.0,0.0,82,0.00,,,0.01,0,Wunderground v.1.15,2013-08-29 03:40:00,
2013-08-28 23:50:00,63.3,58.0,23.20,ENE,63,0.0,0.0,83,0.00,,,0.01,0,Wunderground v.1.15,2013-08-29 03:50:00,